Main page
Satellite images Climate Cyclones Lightning AirportsFAQ Languages Contact Newsletter About
Weather : Europe Africa North America South America Asia Australia-Oceania Others

pattaya-th, Pattaya-Rayong, U-Tapao International Airport

48477

latitude: , longitude: Thailand, elevation: 12-38N m


METAR: VTBU 142230Z 02005KT 4000 BR FEW020 24/17 Q1013 NOSIG